FW3192 Weather Reports


Display with metric or nautical units.
time (UTC)temp
F
wind
direction
speed
MPH
gust
MPH
rain 1hr
in
rain 24hr
in
rain mn
in
humidity
%
barometer
mb
20260510144526 50 337 0.0 1.0 0.00 0.27 0.27 89 1029.1
20260510143024 50 337 0.0 1.0 0.00 0.27 0.27 89 1029.2
20260510141529 51 142 0.0 1.0 0.00 0.27 0.27 88 1029.2
20260510140022 52 142 0.0 0.0 0.00 0.27 0.27 88 1029.2
20260510134521 53 142 0.0 0.0 0.00 0.27 0.27 88 1029.2
20260510133020 53 142 0.0 1.0 0.00 0.27 0.27 88 1029.2
20260510131520 53 142 0.0 0.0 0.00 0.27 0.27 87 1029.2
20260510130004 54 142 0.0 1.0 0.00 0.27 0.27 87 1029.2
20260510124502 54 142 2.0 4.0 0.00 0.27 0.27 85 1029.3
20260510123048 54 124 2.0 3.0 0.00 0.27 0.27 85 1029.3
20260510121545 55 131 3.0 5.0 0.00 0.27 0.27 85 1029.4
20260510120045 53 90 1.0 4.0 0.00 0.27 0.27 85 1029.3
20260510114545 54 104 2.0 3.0 0.00 0.27 0.27 83 1029.1
20260510113044 55 104 2.0 3.0 0.00 0.27 0.27 82 1029.0
20260510111544 56 145 2.0 2.0 0.00 0.27 0.27 82 1028.9
20260510110045 56 145 2.0 2.0 0.00 0.27 0.27 82 1028.9
20260510104548 56 145 2.0 3.0 0.00 0.27 0.27 83 1029.0
20260510103042 56 145 2.0 3.0 0.00 0.27 0.27 81 1028.9
20260510101533 56 145 2.0 3.0 0.00 0.27 0.27 80 1029.0
20260510100026 57 150 1.0 2.0 0.00 0.27 0.27 78 1028.9
20260510094526 58 145 2.0 3.0 0.00 0.27 0.27 77 1028.8
20260510093026 58 146 3.0 5.0 0.00 0.27 0.27 77 1028.6
20260510091528 58 159 3.0 4.0 0.00 0.27 0.27 77 1028.6
20260510090027 58 152 3.0 4.0 0.00 0.27 0.27 77 1028.5
20260510084523 59 159 3.0 4.0 0.00 0.27 0.27 75 1028.2
20260510083025 59 160 4.0 5.0 0.00 0.27 0.27 74 1028.2
20260510081510 60 171 4.0 6.0 0.00 0.27 0.27 73 1028.1
20260510080007 61 174 5.0 8.0 0.00 0.27 0.27 72 1027.9
20260510074507 61 192 5.0 9.0 0.00 0.27 0.27 71 1027.8
20260510073010 61 175 6.0 9.0 0.00 0.27 0.27 69 1027.7
20260510071506 62 208 7.0 10.0 0.00 0.27 0.27 69 1027.5
20260510070008 62 188 5.0 8.0 0.00 0.27 0.27 67 1027.6
20260510064517 62 202 6.0 8.0 0.00 0.27 0.27 68 1027.6
20260510063004 62 209 5.0 8.0 0.00 0.27 0.27 66 1027.5
20260510061550 62 185 7.0 10.0 0.00 0.27 0.27 66 1027.4
20260510060049 62 210 6.0 10.0 0.00 0.27 0.27 66 1027.4
20260510054549 63 211 4.0 7.0 0.00 0.27 0.27 66 1027.4
20260510053048 63 211 3.0 6.0 0.00 0.27 0.27 64 1027.4
20260510051553 63 210 4.0 6.0 0.00 0.27 0.27 64 1027.4
20260510050047 63 217 5.0 8.0 0.00 0.27 0.27 64 1027.4
20260510044547 63 241 3.0 7.0 0.00 0.27 0.27 63 1027.5
20260510043045 63 254 5.0 8.0 0.00 0.27 0.27 63 1027.5
20260510041539 64 239 3.0 6.0 0.00 0.27 0.27 61 1027.5
20260510040038 65 6 2.0 6.0 0.00 0.27 0.27 60 1027.6
20260510034534 64 358 3.0 6.0 0.00 0.27 0.27 60 1027.7
20260510033034 65 67 0.0 5.0 0.00 0.27 0.27 59 1027.9
20260510031529 64 74 2.0 8.0 0.00 0.27 0.27 61 1028.1
20260510030027 64 62 0.0 5.0 0.00 0.27 0.27 61 1028.2
20260510024508 63 154 2.0 4.0 0.00 0.27 0.27 60 1028.5
20260510023004 63 33 1.0 7.0 0.00 0.27 0.27 63 1028.8
20260510021505 63 151 4.0 7.0 0.00 0.27 0.27 64 1029.0
20260510020058 62 108 4.0 6.0 0.00 0.27 0.27 66 1029.2
20260510014555 62 104 5.0 10.0 0.00 0.27 0.27 67 1029.4
20260510013053 61 91 4.0 7.0 0.00 0.27 0.27 71 1029.4
20260510011549 61 110 5.0 9.0 0.00 0.27 0.27 72 1029.4
20260510010045 60 120 5.0 8.0 0.00 0.27 0.27 77 1029.5
20260510004527 59 100 4.0 7.0 0.05 0.27 0.27 83 1029.5
20260510003024 57 99 3.0 5.0 0.27 0.27 0.27 88 1029.5
20260510001520 56 121 2.0 4.0 0.27 0.27 0.27 91 1029.5
20260510000017 55 90 1.0 3.0 0.27 0.27 0.27 92 1029.7
20260509234529 54 106 1.0 3.0 0.15 0.15 0.15 93 1029.7
20260509233012 54 78 0.0 2.0 0.00 0.00 0.00 93 1029.7
20260509231515 53 75 2.0 3.0 0.00 0.00 0.00 94 1029.7
20260509230005 52 89 1.0 2.0 0.00 0.00 0.00 94 1029.6
20260509224557 52 45 0.0 2.0 0.00 0.00 0.00 94 1029.5
20260509223051 51 85 0.0 1.0 0.00 0.00 0.00 94 1029.4
20260509221544 51 46 0.0 0.0 0.00 0.00 0.00 94 1029.2
20260509220042 50 34 0.0 0.0 0.00 0.00 0.00 94 1029.1
20260509214543 50 92 0.0 0.0 0.00 0.00 0.00 94 1028.8
20260509213042 49 93 0.0 0.0 0.00 0.00 0.00 94 1028.7
20260509211540 49 43 0.0 0.0 0.00 0.00 0.00 94 1028.5
20260509210047 49 33 0.0 0.0 0.00 0.00 0.00 94 1028.5
20260509204526 49 85 0.0 0.0 0.00 0.00 0.00 94 1028.4
20260509203031 48 57 0.0 0.0 0.00 0.00 0.00 94 1028.2
20260509201526 48 44 0.0 0.0 0.00 0.00 0.00 94 1028.1
20260509200025 48 43 0.0 0.0 0.00 0.00 0.00 94 1028.0
20260509194527 47 43 0.0 0.0 0.00 0.00 0.00 94 1027.9
20260509193024 47 43 0.0 0.0 0.00 0.00 0.00 93 1027.8
20260509191525 48 76 0.0 0.0 0.00 0.00 0.00 94 1027.7
20260509190023 47 63 0.0 0.0 0.00 0.00 0.00 94 1027.6
20260509184518 46 33 0.0 0.0 0.00 0.00 0.00 94 1027.4
20260509183005 48 33 0.0 0.0 0.00 0.00 0.00 93 1027.4
20260509181503 49 33 0.0 0.0 0.00 0.00 0.00 94 1027.3
20260509180002 48 33 0.0 0.0 0.00 0.00 0.00 93 1027.3
20260509174501 49 33 0.0 0.0 0.00 0.00 0.00 93 1027.4
20260509173111 50 78 0.0 1.0 0.00 0.00 0.00 94 1027.4
20260509171600 49 133 1.0 2.0 0.00 0.00 0.00 94 1027.4
20260509170058 49 133 1.0 3.0 0.00 0.00 0.00 94 1027.3
20260509164544 49 135 0.0 0.0 0.00 0.00 0.00 93 1027.4
20260509163044 49 135 0.0 1.0 0.00 0.00 0.00 93 1027.5
20260509161552 49 135 0.0 2.0 0.00 0.00 0.00 93 1027.6
20260509160043 50 135 0.0 2.0 0.00 0.00 0.00 94 1027.7
20260509154541 49 25 0.0 0.0 0.00 0.00 0.00 93 1027.7
20260509153041 49 25 0.0 1.0 0.00 0.00 0.00 94 1027.8
20260509151542 50 25 0.0 0.0 0.00 0.00 0.00 93 1027.8
20260509150039 49 25 0.0 0.0 0.00 0.00 0.00 93 1027.8